Meteo pe oră la Alobras

Astăzi, 28 Ianuarie, Joi

Timp Temperatura Precipitaţii Vânt Presiune Umiditate
00:00 +6°C° 0 mm 1 m/s 654 mmHg 92%
01:00 +5°C° 0 mm 2 m/s 653 mmHg 91%
02:00 +5°C° 0 mm 2 m/s 653 mmHg 90%
03:00 +5°C° 0 mm 2 m/s 653 mmHg 89%
04:00 +5°C° 0 mm 2 m/s 653 mmHg 88%
05:00 +5°C° 0 mm 2 m/s 653 mmHg 87%
06:00 +5°C° 0 mm 2 m/s 653 mmHg 85%
07:00 +6°C° 0 mm 2 m/s 653 mmHg 81%
08:00 +8°C° 0 mm 2 m/s 654 mmHg 76%
09:00 +10°C° 0 mm 2 m/s 655 mmHg 71%
10:00 +12°C° 0 mm 3 m/s 655 mmHg 64%
11:00 +14°C° 0 mm 4 m/s 656 mmHg 57%
12:00 +16°C° 0 mm 5 m/s 656 mmHg 50%
13:00 +16°C° 0 mm 5 m/s 656 mmHg 51%
14:00 +15°C° 0 mm 5 m/s 655 mmHg 52%
15:00 +15°C° 0 mm 6 m/s 654 mmHg 53%
16:00 +13°C° 0 mm 4 m/s 654 mmHg 62%
17:00 +11°C° 0 mm 3 m/s 653 mmHg 71%
18:00 +9°C° 0 mm 2 m/s 653 mmHg 80%
19:00 +8°C° 0 mm 2 m/s 652 mmHg 81%
20:00 +8°C° 0 mm 2 m/s 652 mmHg 83%
21:00 +8°C° 0 mm 2 m/s 652 mmHg 84%
22:00 +7°C° 0 mm 2 m/s 652 mmHg 85%
23:00 +7°C° 0 mm 2 m/s 653 mmHg 86%

Mâine, 29 Ianuarie, Vineri

Timp Temperatura Precipitaţii Vânt Presiune Umiditate
00:00 +7°C° 0 mm 3 m/s 653 mmHg 87%
01:00 +7°C° 0 mm 3 m/s 652 mmHg 87%
02:00 +7°C° 0 mm 3 m/s 652 mmHg 87%
03:00 +5°C° 0 mm 3 m/s 651 mmHg 87%
04:00 +5°C° 0 mm 3 m/s 651 mmHg 88%
05:00 +4°C° 0 mm 3 m/s 651 mmHg 88%
06:00 +5°C° 0 mm 2 m/s 651 mmHg 88%
07:00 +6°C° 0 mm 2 m/s 651 mmHg 86%
08:00 +7°C° 0 mm 2 m/s 652 mmHg 83%
09:00 +8°C° 0 mm 3 m/s 652 mmHg 81%
10:00 +10°C° 0 mm 4 m/s 653 mmHg 70%
11:00 +12°C° 0 mm 5 m/s 653 mmHg 59%
12:00 +14°C° 0 mm 6 m/s 654 mmHg 48%
13:00 +14°C° 0 mm 6 m/s 653 mmHg 50%
14:00 +14°C° 0 mm 6 m/s 653 mmHg 51%
15:00 +13°C° 0 mm 6 m/s 652 mmHg 53%
16:00 +10°C° 0 mm 5 m/s 652 mmHg 63%
17:00 +8°C° 0 mm 4 m/s 651 mmHg 74%
18:00 +7°C° 0 mm 3 m/s 650 mmHg 85%
19:00 +7°C° 0 mm 3 m/s 650 mmHg 86%
20:00 +5°C° 0 mm 3 m/s 650 mmHg 88%
21:00 +5°C° 0 mm 3 m/s 650 mmHg 89%
22:00 +5°C° 0 mm 4 m/s 650 mmHg 89%
23:00 +5°C° 0 mm 5 m/s 650 mmHg 89%

Poimâine, 30 Ianuarie, Sâmbătă

Timp Temperatura Precipitaţii Vânt Presiune Umiditate
00:00 +4°C° 0 mm 6 m/s 650 mmHg 89%
01:00 +4°C° 0 mm 7 m/s 649 mmHg 90%
02:00 +4°C° 0 mm 7 m/s 648 mmHg 91%
03:00 +4°C° 0 mm 8 m/s 648 mmHg 91%
04:00 +3°C° 0 mm 10 m/s 647 mmHg 89%
05:00 +3°C° 0 mm 12 m/s 647 mmHg 88%
06:00 +3°C° 0 mm 13 m/s 646 mmHg 86%
07:00 +3°C° 0.2 mm 13 m/s 646 mmHg 84%
08:00 +4°C° 0.2 mm 13 m/s 646 mmHg 83%
09:00 +4°C° 0.2 mm 13 m/s 646 mmHg 81%
10:00 +4°C° 0 mm 14 m/s 646 mmHg 75%
11:00 +4°C° 0 mm 14 m/s 646 mmHg 70%
12:00 +5°C° 0 mm 14 m/s 645 mmHg 64%
13:00 +4°C° 0 mm 14 m/s 645 mmHg 63%
14:00 +3°C° 0 mm 14 m/s 645 mmHg 61%
15:00 +3°C° 0 mm 14 m/s 644 mmHg 60%
16:00 +1°C° 0.1 mm 14 m/s 644 mmHg 66%
17:00 -1°C° 0.1 mm 13 m/s 644 mmHg 71%
18:00 -2°C° 0.1 mm 12 m/s 644 mmHg 77%
19:00 -2°C° 0.1 mm 12 m/s 644 mmHg 77%
20:00 -2°C° 0.1 mm 12 m/s 645 mmHg 78%
21:00 -2°C° 0.1 mm 12 m/s 645 mmHg 78%
22:00 -3°C° 0 mm 12 m/s 645 mmHg 77%
23:00 -3°C° 0 mm 11 m/s 645 mmHg 77%

31 Ianuarie, Duminică

Timp Temperatura Precipitaţii Vânt Presiune Umiditate
00:00 -3°C° 0 mm 11 m/s 645 mmHg 76%
01:00 -3°C° 0 mm 11 m/s 645 mmHg 76%
02:00 -3°C° 0 mm 11 m/s 645 mmHg 77%
03:00 -3°C° 0 mm 10 m/s 645 mmHg 77%
04:00 -3°C° 0 mm 9 m/s 645 mmHg 80%
05:00 -1°C° 0 mm 9 m/s 645 mmHg 83%
06:00 -1°C° 0 mm 8 m/s 645 mmHg 86%
07:00 +1°C° 0 mm 9 m/s 646 mmHg 83%
08:00 +2°C° 0 mm 9 m/s 646 mmHg 80%
09:00 +3°C° 0 mm 10 m/s 647 mmHg 78%
10:00 +4°C° 0 mm 11 m/s 647 mmHg 75%
11:00 +4°C° 0 mm 12 m/s 647 mmHg 73%
12:00 +5°C° 0 mm 12 m/s 647 mmHg 71%
13:00 +5°C° 0 mm 12 m/s 647 mmHg 72%
14:00 +5°C° 0 mm 12 m/s 646 mmHg 73%
15:00 +4°C° 0 mm 12 m/s 646 mmHg 74%
16:00 +4°C° 0 mm 12 m/s 646 mmHg 76%
17:00 +4°C° 0 mm 11 m/s 646 mmHg 78%
18:00 +3°C° 0 mm 11 m/s 645 mmHg 80%
19:00 +3°C° 0 mm 11 m/s 645 mmHg 81%
20:00 +3°C° 0 mm 12 m/s 645 mmHg 82%
21:00 +3°C° 0 mm 12 m/s 646 mmHg 83%
22:00 +3°C° 0 mm 12 m/s 646 mmHg 81%
23:00 +3°C° 0 mm 12 m/s 646 mmHg 80%

1 Februarie, Luni

Timp Temperatura Precipitaţii Vânt Presiune Umiditate
00:00 +3°C° 0 mm 13 m/s 646 mmHg 78%
01:00 +2°C° 0 mm 12 m/s 646 mmHg 78%
02:00 +2°C° 0 mm 12 m/s 645 mmHg 78%
03:00 0°C° 0 mm 12 m/s 645 mmHg 77%
04:00 +1°C° 0 mm 11 m/s 646 mmHg 78%
05:00 +1°C° 0 mm 11 m/s 646 mmHg 79%
06:00 +1°C° 0 mm 10 m/s 646 mmHg 80%
07:00 +1°C° 0 mm 10 m/s 646 mmHg 78%
08:00 +2°C° 0 mm 9 m/s 647 mmHg 76%
09:00 +3°C° 0 mm 9 m/s 648 mmHg 73%
10:00 +5°C° 0 mm 10 m/s 648 mmHg 70%
11:00 +6°C° 0 mm 10 m/s 649 mmHg 66%
12:00 +7°C° 0 mm 10 m/s 649 mmHg 62%
13:00 +7°C° 0 mm 10 m/s 649 mmHg 63%
14:00 +7°C° 0 mm 11 m/s 649 mmHg 63%
15:00 +7°C° 0 mm 11 m/s 649 mmHg 64%
16:00 +6°C° 0 mm 9 m/s 649 mmHg 69%
17:00 +5°C° 0 mm 8 m/s 649 mmHg 74%
18:00 +4°C° 0 mm 6 m/s 649 mmHg 79%
19:00 +5°C° 0 mm 5 m/s 650 mmHg 83%
20:00 +3°C° 0 mm 5 m/s 650 mmHg 86%
21:00 +4°C° 0 mm 4 m/s 650 mmHg 90%
22:00 +3°C° 0 mm 4 m/s 650 mmHg 90%
23:00 +3°C° 0 mm 3 m/s 650 mmHg 90%

2 Februarie, Marţi

Timp Temperatura Precipitaţii Vânt Presiune Umiditate
00:00 +3°C° 0 mm 2 m/s 650 mmHg 91%
01:00 +3°C° 0 mm 2 m/s 650 mmHg 91%
02:00 +3°C° 0 mm 2 m/s 650 mmHg 91%
03:00 +3°C° 0 mm 2 m/s 650 mmHg 92%
04:00 +3°C° 0 mm 2 m/s 650 mmHg 92%
05:00 +3°C° 0 mm 2 m/s 650 mmHg 93%
06:00 +2°C° 0 mm 2 m/s 650 mmHg 94%
07:00 +4°C° 0 mm 2 m/s 650 mmHg 91%
08:00 +5°C° 0 mm 2 m/s 651 mmHg 88%
09:00 +6°C° 0 mm 2 m/s 651 mmHg 86%
10:00 +8°C° 0 mm 3 m/s 652 mmHg 74%
11:00 +9°C° 0 mm 3 m/s 652 mmHg 62%
12:00 +11°C° 0 mm 3 m/s 653 mmHg 50%
13:00 +12°C° 0 mm 3 m/s 652 mmHg 46%
14:00 +13°C° 0 mm 3 m/s 652 mmHg 42%
15:00 +13°C° 0 mm 3 m/s 652 mmHg 37%
16:00 +11°C° 0 mm 3 m/s 651 mmHg 46%
17:00 +9°C° 0 mm 2 m/s 650 mmHg 55%
18:00 +6°C° 0 mm 2 m/s 649 mmHg 64%
19:00 +6°C° 0 mm 2 m/s 649 mmHg 67%
20:00 +5°C° 0 mm 2 m/s 649 mmHg 71%
21:00 +5°C° 0 mm 2 m/s 649 mmHg 75%
22:00 +4°C° 0 mm 2 m/s 649 mmHg 77%
23:00 +4°C° 0 mm 2 m/s 648 mmHg 79%
Arată mai mult

Formular de consimțământ

Meteoprog și furnizorii noștri de servicii pot stoca și accesa date personale, precum cookies, identificatori de dispozitiv sau alte tehnologii similare pe dispozitivul dumneavoastră și procesa astfel de date pentru a personaliza conținutul și reclamele, dar și pentru a oferi caracteristici de social media și pentru a analiza traficul.

  • Stocarea și/sau accesarea informațiilor pe dispozitivul dumneavoastră

    Cookies, identificatori de dispozitiv sau alte informații pot fi stocate sau accesate pe dispozitiv în scopurile indicate mai sus.

  • Reclame și conținut personalizat, evaluarea reclamelor și a conținutului, informații despre audiențe și dezvoltarea produselor

    Reclamele și conținutul pot fi personalizate pe baza unui profil. Pot fi adăugate date suplimentare pentru a personaliza mai bine reclamele și conținutul. Performanța reclamelor și conținutului poate fi măsurată. Pot fi obținute informații despre utilizatorii care au văzut reclamele și conținutul. Aceste date pot fi utilizate pentru a dezvolta sau îmbunătăți experiența utilizatorilor, sistemele și software-ul.

Dând clic pe ‘Sunt de acord’, permiteți utilizarea cookie-urilor menționate, a identificatorilor de dispozitiv, balizelor web sau altor tehnologii similare. Setările pot fi modificate din browser-ul dispozitivului dumneavoastră.

În anumite scopuri, interesele legitime pot prima asupra consimțământului. Puteți citi mai multe informații în acest sens în Politica privind Confidențialitatea Datelor și Cookie.